St Paul Downtown Holman Field
KSTP : now visible

Airfield :











YOU CAN JOIN US ON...

 
LOGIN :

Register | Disclaimer

   EN    FR    IT 

 









Legend :    VFR   Marginal VFR   IFR   Intensive IFR   Very Intensive IFR
Visi :
Ceiling :
>= 8 km
>= 3000ft
5 to 8 km
1000 to 3000 ft
1500m to 5 km
500 to 1000 ft
800 to 1500m
200 to 500 ft
< 800m
< 200 ft
Symbols :   Thunderstorms  Fog  Heavy snow  Heavy precipitations  Wind > 20 kt






- Airport Elevation : 705 ft
- IATA code : STP


KSTP - St Paul Downtown Holman Field

CURRENT METAR :
  • 221653Z 29018G29KT 10SM -RA BKN018 OVC022 06/03 A2949 RMK AO2 PK WND 29031/1637 SLP987 P0002 T00560028 $

EXPIRED METARs :
  • 221553Z 28019G27KT 10SM -RA BKN020 OVC028 06/03 A2946 RMK AO2 PK WND 28030/1513 SLP978 P0002 T00560028 $
  • 221453Z 29020G27KT 10SM -RA OVC020 06/03 A2944 RMK AO2 PK WND 29032/1403 SLP971 P0002 60007 T00560028 53027

Expired Forecast.



MET'MAP, your aeronautical weather chart ! - Copyright ORBIFLY December 2007 - Disclaimer

ORBIFLY MET'MAP TEAM :

Programming & Development : Alexandra Zaïnal
Concept & Development : Baudouin d'Aumeries
Co-Development & Prog : Marc-Olivier Méhu
Technical & hardware support : Manuel Goepfert

Contact : metmap@orbifly.com




SOURCES & CREDITS :

   NOAA       Earth
Advisory